RH
18 17 17 18 18 18 18 17 18 17 19 25 31 35 38 39 41 44 42 38 37 36 35 33 28 23 18 16 17 19 18 16 12 10 9 9 10 11 14 19 21 23 25 25 24 23 22 22 21 21 21 22 21 20 19 19 18 17 17 17 18 20 21 22 22 23 26 25 26 30 32 33 32 30 27 22 17 15 15 15 15 17 17 17 16 14 14 12
16 16 15 16 16 16 17 16 16 17 17 21 27 31 33 35 37 39 41 38 35 35 34 34 32 28 22 18 17 17 19 19 16 12 11 10 9 10 11 14 19 23 25 25 25 24 23 23 23 22 22 22 21 20 19 18 18 17 16 17 17 18 18 19 21 22 23 24 27 29 31 30 28 24 20 18 15 15 15 15 16 17 17 16 15 14 13 13
15 15 15 15 15 15 16 16 16 17 18 20 24 28 30 32 33 35 38 39 36 34 33 32 32 31 25 21 18 17 17 18 18 16 14 12 10 10 10 11 16 21 23 25 25 24 24 24 23 23 22 22 20 20 19 18 18 17 17 17 17 17 17 18 19 20 21 22 24 25 26 23 21 19 17 16 16 16 15 16 17 17 17 15 14 12 11 14
14 14 14 14 15 15 16 17 18 19 20 21 23 26 29 30 31 33 34 36 37 36 34 32 31 31 29 24 20 18 17 17 18 18 18 15 13 12 11 11 13 17 20 23 24 25 25 24 24 23 22 21 20 20 19 19 18 17 17 17 18 17 17 18 19 19 19 19 20 20 20 19 19 16 16 16 16 16 16 17 18 18 17 14 13 11 11 15
12 12 13 13 13 14 15 17 18 21 23 24 25 26 28 30 30 32 33 34 35 36 36 33 30 30 30 27 23 21 19 19 17 17 19 18 16 15 13 12 12 13 16 19 22 24 24 24 24 23 23 21 20 20 19 19 19 19 18 17 18 17 18 18 18 19 18 18 18 18 17 17 16 15 17 16 16 22 24 22 18 17 15 13 12 10 11 15
9 10 10 11 12 12 12 14 15 18 21 23 25 26 27 29 30 32 33 34 34 35 35 34 32 29 29 28 26 24 21 21 20 17 18 19 19 17 16 15 13 12 12 15 18 21 23 23 24 23 23 22 21 20 20 20 20 19 19 18 18 18 18 17 18 19 17 17 16 17 17 16 16 17 17 16 19 27 30 24 17 15 14 12 11 9 12 16
9 9 9 10 10 11 11 11 12 13 16 18 20 23 25 28 30 31 33 35 35 34 34 34 33 31 28 26 27 27 26 24 22 20 17 17 19 18 18 17 16 13 11 13 14 17 19 21 22 23 23 22 22 21 21 21 20 20 20 19 18 18 18 18 19 18 17 17 17 17 16 16 17 16 18 20 22 24 26 21 15 15 12 11 10 9 14 16
10 10 9 9 9 10 11 11 11 12 12 13 14 17 20 23 26 29 31 33 35 34 33 33 32 32 30 27 25 26 30 29 24 22 19 17 17 18 19 19 19 16 13 12 12 13 15 17 19 20 21 22 21 22 22 21 20 21 20 20 20 19 19 19 19 18 19 17 17 17 16 17 16 17 19 20 23 25 24 19 13 13 10 10 9 9 16 16
10 10 10 10 10 9 10 10 10 11 11 11 11 13 14 17 20 24 28 30 32 33 32 31 30 30 30 30 26 23 29 32 27 25 22 18 17 17 18 19 20 19 16 13 12 13 13 14 15 16 18 19 19 20 21 21 20 20 20 20 19 19 19 18 19 18 17 17 17 17 15 17 15 17 17 20 32 33 21 14 14 12 9 10 7 11 17 14
12 11 11 10 10 10 10 10 10 10 10 10 10 11 11 12 13 16 19 23 26 29 30 30 28 27 27 29 29 24 25 28 28 29 27 20 17 17 16 18 19 20 20 16 14 12 12 13 13 14 15 15 16 17 18 19 19 19 19 20 19 19 18 18 18 17 17 18 17 16 16 17 16 17 16 18 28 26 15 13 14 9 9 10 6 15 18 12
13 12 12 11 11 11 10 10 10 10 9 9 9 10 10 10 11 11 13 15 17 20 24 26 26 24 24 25 28 26 24 25 26 30 33 26 19 17 17 18 18 19 20 19 17 13 13 14 14 14 14 14 14 14 15 16 16 17 17 18 18 18 18 18 18 17 18 17 17 18 16 15 15 16 16 16 16 14 13 12 11 8 9 8 8 19 17 11
18 16 15 14 13 12 12 11 11 10 10 10 9 9 9 9 10 10 11 12 12 14 16 19 20 21 22 23 24 23 23 26 25 24 30 31 23 17 16 18 18 18 18 20 19 16 14 14 16 16 15 15 15 14 13 13 14 14 15 15 16 16 17 17 17 17 16 16 17 16 15 18 19 17 15 14 13 13 13 10 9 9 9 7 13 21 13 10
23 22 20 18 17 16 14 13 12 12 11 10 10 10 9 9 9 9 10 11 11 12 13 14 15 16 18 20 21 19 20 25 26 21 23 29 28 19 15 17 19 18 17 18 19 19 17 15 16 16 17 16 17 16 13 13 13 12 13 13 13 14 14 15 15 15 15 15 15 14 18 21 24 31 26 14 12 11 9 10 9 8 8 8 17 21 10 10
26 25 24 23 21 21 19 18 16 15 14 12 11 11 10 10 10 10 9 9 10 10 11 12 12 12 14 16 17 16 17 20 24 22 19 23 27 24 17 16 19 19 17 17 18 19 18 16 16 16 17 17 18 18 14 15 14 12 12 11 12 11 11 12 12 12 12 12 12 12 13 13 23 36 31 18 11 10 9 8 8 8 8 10 20 18 8 11
24 24 24 24 23 23 23 22 21 19 18 16 14 13 12 11 11 11 10 10 9 9 10 10 10 11 11 12 13 14 14 15 19 21 19 19 21 24 22 17 17 18 17 16 17 18 19 18 17 17 17 17 18 18 17 17 15 14 13 11 11 10 11 10 9 10 9 10 10 9 11 19 20 12 25 36 17 7 9 7 8 8 7 12 20 14 8 12
19 19 20 20 20 21 21 22 22 21 20 19 18 16 15 13 13 12 12 11 10 10 10 9 9 9 9 10 10 12 12 12 14 16 17 18 18 19 21 19 18 18 17 16 16 17 18 18 18 18 17 16 17 17 18 19 18 18 16 14 12 11 12 10 10 9 8 9 8 7 11 20 21 16 46 59 21 5 9 6 9 7 9 16 16 11 9 11
15 15 16 16 16 16 17 18 18 19 19 19 19 18 17 16 16 15 14 13 12 11 11 10 9 9 8 9 9 10 11 11 11 13 14 15 16 16 16 17 18 19 17 16 16 16 17 18 18 18 17 17 16 16 17 18 19 20 18 16 13 13 13 11 11 9 9 9 7 10 7 10 26 41 62 47 7 8 10 6 12 7 13 19 12 10 10 11
15 15 15 14 14 14 13 14 14 14 14 15 16 17 17 17 17 18 17 16 14 14 13 12 10 10 9 8 8 8 9 10 10 11 12 13 13 14 14 15 16 19 20 17 17 17 16 17 17 18 18 18 18 18 18 17 18 19 19 16 13 13 13 12 13 12 12 11 9 12 8 11 24 44 73 52 8 8 10 8 11 9 20 19 9 10 9 11
17 17 16 16 15 14 14 13 13 12 11 12 12 12 13 14 15 16 17 17 17 16 16 14 12 11 10 9 9 8 8 9 9 9 10 11 12 13 13 13 13 16 19 19 19 18 17 17 17 18 19 19 20 19 19 17 16 17 16 13 12 13 14 14 15 14 14 13 13 12 10 24 33 43 69 51 9 8 11 9 13 19 24 14 8 11 8 10
18 18 18 18 17 17 16 15 15 14 12 11 11 10 10 10 11 12 13 14 16 17 17 17 15 13 11 10 9 9 8 8 8 8 9 9 10 11 12 12 12 13 16 20 21 20 18 16 18 21 21 19 19 18 17 16 16 16 14 13 13 14 15 15 16 16 15 13 14 13 11 23 32 31 30 18 8 13 11 15 28 30 22 10 9 10 9 11
18 18 18 18 17 17 17 17 16 16 15 13 12 11 10 10 9 9 10 10 11 13 14 16 16 16 14 13 11 9 9 8 8 8 8 8 8 9 10 10 11 11 14 17 19 19 18 20 27 28 22 18 18 18 17 17 16 14 14 14 14 15 15 15 16 15 15 14 13 14 13 12 16 16 12 12 13 11 18 34 39 28 15 10 10 9 9 11
21 20 20 19 18 17 17 16 16 16 16 15 14 13 12 11 10 9 9 9 9 9 10 12 13 15 15 15 14 12 10 9 9 9 9 8 8 8 8 9 10 10 12 12 15 19 19 29 39 31 20 17 18 18 18 18 16 14 14 14 13 15 15 15 16 15 14 14 13 13 13 12 13 14 14 15 11 17 38 43 30 20 13 10 10 9 9 10
27 26 24 22 20 19 17 16 16 15 15 15 15 14 14 13 12 11 10 10 10 9 9 9 9 11 12 14 15 14 13 11 10 9 9 9 8 8 8 8 9 9 10 10 13 17 20 35 41 25 17 19 17 17 18 18 16 14 15 14 14 13 14 16 15 15 15 14 14 14 13 13 14 16 15 14 21 38 45 32 22 18 12 9 11 9 9 10
31 29 27 25 22 20 17 16 15 15 15 14 14 14 14 14 13 12 12 11 11 10 10 9 9 9 9 10 12 14 15 13 12 11 10 10 9 8 8 7 8 8 9 9 12 14 18 33 34 18 16 18 15 16 18 18 17 15 15 14 14 13 13 15 15 17 17 14 15 14 13 13 13 17 19 24 43 54 40 28 25 16 10 11 10 9 9 10
31 29 27 24 22 20 18 16 15 14 14 14 14 13 13 13 13 12 12 12 12 11 11 10 10 10 9 9 9 10 12 13 14 13 11 11 9 9 9 8 7 7 8 9 10 12 16 25 24 16 17 16 15 16 16 17 17 15 16 15 13 12 12 13 15 17 15 14 15 14 15 18 17 17 23 42 61 59 46 38 26 13 11 11 9 10 10 9
36 33 30 26 23 21 18 17 15 14 14 14 13 13 12 12 12 12 11 11 11 11 11 11 11 11 10 10 9 9 9 10 12 13 13 13 11 10 9 9 8 7 7 8 9 10 14 20 18 15 17 15 15 16 15 17 17 16 16 15 13 12 11 11 14 15 14 13 14 15 17 21 23 19 28 59 74 64 60 49 24 12 12 11 10 10 9 9
38 34 31 28 25 22 20 19 17 15 15 14 13 12 12 11 11 11 10 10 10 10 10 10 11 11 11 11 11 10 9 9 9 10 12 12 13 12 10 10 9 8 7 7 8 9 14 19 16 14 15 14 16 18 18 18 17 17 17 14 12 11 11 11 12 13 13 12 13 17 16 18 29 31 42 74 84 74 68 47 20 13 12 11 11 9 9 10
35 32 29 27 24 22 21 20 18 17 15 14 13 13 12 11 11 10 10 9 9 9 9 9 10 10 10 11 11 11 11 10 9 8 9 10 11 12 12 11 10 9 8 7 8 8 14 19 16 13 13 13 16 19 19 17 16 17 16 13 11 11 10 10 11 12 12 11 12 16 15 14 25 35 56 85 88 77 60 34 17 13 12 12 11 10 10 10
31 28 26 25 24 23 22 21 20 18 17 16 15 15 14 13 12 11 10 9 8 8 8 8 9 8 9 10 10 11 11 11 11 9 8 8 9 10 11 12 11 10 9 8 8 8 12 17 16 13 11 11 15 17 16 14 15 16 15 13 11 10 9 8 10 12 12 11 11 13 15 15 15 21 47 74 79 66 41 20 14 13 13 13 11 11 10 10
28 27 27 25 25 24 23 22 21 20 19 18 17 17 16 14 13 12 11 10 9 9 8 8 8 8 8 8 9 10 10 11 11 11 10 8 8 8 9 11 12 12 11 10 9 9 11 14 13 12 11 10 12 14 13 13 15 14 13 12 10 8 8 7 9 11 11 12 13 13 13 16 14 12 23 38 45 40 22 13 13 12 13 13 11 12 11 10
31 31 30 28 27 26 25 24 23 22 21 20 19 18 16 14 13 12 11 10 9 9 9 8 8 7 7 7 8 9 9 10 11 11 11 10 9 8 8 8 10 12 12 12 10 9 12 13 13 14 14 12 11 11 12 13 14 12 11 11 8 6 6 6 8 10 11 12 13 14 14 15 15 14 14 16 18 17 12 12 13 12 13 13 12 12 11 11
35 35 33 31 30 27 26 25 24 24 23 22 21 19 17 15 13 12 11 10 10 10 9 9 8 8 7 7 7 8 8 9 9 10 11 11 10 9 8 8 8 9 12 14 12 10 12 13 13 14 15 13 11 10 10 13 13 11 11 11 8 7 6 5 7 8 11 13 13 14 15 15 16 16 15 14 14 12 12 12 12 13 13 12 13 12 12 12
38 37 35 33 31 29 28 27 25 25 25 25 24 21 18 17 15 14 12 11 11 10 10 9 8 8 7 7 7 7 8 8 8 9 10 11 11 10 9 9 8 8 8 12 14 12 13 14 13 12 14 14 11 10 10 11 12 12 12 10 8 8 6 6 7 8 10 13 13 14 14 16 18 15 14 15 15 14 14 13 12 13 13 13 13 13 12 12
41 40 37 34 32 31 31 31 30 28 28 27 25 22 20 19 17 15 14 13 12 11 10 9 8 8 7 7 7 7 7 8 8 8 9 10 11 10 10 10 9 8 7 8 12 14 15 16 14 11 13 15 13 11 10 11 12 12 12 11 9 8 8 8 7 8 12 14 13 13 13 16 17 14 15 17 16 15 14 13 13 12 13 13 13 13 13 13
44 41 37 36 36 35 35 34 32 30 28 26 23 21 19 18 16 14 13 12 11 11 10 10 9 8 8 7 7 7 7 7 8 8 8 9 10 10 10 10 10 9 8 7 8 12 15 18 15 11 12 15 14 11 9 10 10 11 11 10 9 8 8 9 8 7 12 14 13 12 13 16 17 15 16 17 15 15 15 14 14 13 13 13 13 14 14 14
45 42 40 38 38 37 36 33 30 27 25 22 20 18 17 16 14 13 12 11 10 10 9 9 9 8 8 8 7 7 7 7 7 7 8 8 9 10 10 10 10 10 9 8 7 8 14 19 17 12 12 14 14 12 9 8 9 10 10 10 10 10 9 9 8 8 11 14 12 12 13 15 17 16 16 16 15 14 15 15 15 14 14 14 14 14 15 15
46 43 40 38 36 34 32 28 25 22 20 18 17 16 15 14 14 13 12 11 10 10 9 9 8 8 8 8 7 8 7 7 7 7 8 8 8 9 9 10 10 10 10 9 8 7 9 16 17 15 14 15 15 13 9 8 9 9 9 11 12 11 10 9 8 8 11 13 12 11 12 13 15 16 14 14 15 14 14 15 15 15 14 14 14 15 16 16
45 42 38 35 32 28 25 21 20 19 18 17 16 16 16 15 15 14 13 13 12 11 10 9 8 8 7 7 7 7 7 7 7 7 7 7 8 8 9 9 9 10 10 9 9 8 8 11 15 17 16 15 16 15 11 9 8 8 8 10 11 10 9 8 8 8 10 12 12 11 11 12 14 15 12 12 14 13 13 14 14 14 14 14 15 14 15 16
42 38 34 30 25 23 21 19 19 19 19 18 18 18 18 18 17 16 15 14 13 12 11 10 9 8 7 7 7 7 7 7 7 8 7 7 8 8 8 9 9 9 10 9 9 9 9 9 11 15 16 15 16 16 13 9 8 8 7 8 9 9 9 8 8 9 11 13 13 11 11 13 16 17 12 10 14 13 12 14 14 14 14 14 15 14 14 15
37 33 28 24 22 21 21 20 21 21 20 20 20 21 21 20 19 18 17 16 15 14 13 11 10 9 8 7 7 6 6 6 6 7 7 7 8 8 8 8 9 9 9 9 9 10 10 9 9 11 14 16 18 17 15 12 9 8 7 7 8 8 8 8 8 10 11 13 13 11 12 14 17 21 15 9 13 12 11 13 13 14 14 14 14 14 14 14
31 26 23 22 22 22 22 22 22 23 23 22 22 22 22 22 21 20 18 17 15 14 13 12 11 10 9 8 7 7 6 6 6 6 6 7 7 8 8 8 8 9 9 9 9 9 10 10 9 8 11 15 18 18 16 13 10 8 6 6 8 8 8 7 8 10 11 13 13 11 13 14 16 22 19 10 11 12 10 11 12 12 13 13 13 13 13 14
25 23 23 23 23 23 23 23 23 24 24 24 24 24 25 25 24 22 20 19 16 14 12 12 11 10 9 8 7 6 6 5 5 5 5 6 6 7 7 8 8 8 9 9 9 9 9 10 10 8 8 13 17 18 17 14 11 8 7 6 7 7 7 7 9 12 12 13 14 11 13 14 14 23 24 13 9 11 10 10 11 11 12 12 12 13 13 13
23 23 24 24 24 24 24 25 25 26 27 26 26 27 27 26 25 24 23 22 20 18 15 13 12 10 9 8 6 6 5 4 4 4 4 4 5 6 6 7 8 8 9 9 8 9 9 10 11 10 9 10 14 17 18 16 13 10 8 7 6 6 6 7 8 10 11 13 15 12 13 16 15 23 30 20 10 10 10 11 12 12 12 12 12 12 12 13
24 24 24 24 25 26 26 27 27 29 30 29 29 30 28 25 24 24 25 24 22 21 18 15 13 11 9 8 6 5 4 4 4 4 4 4 4 5 5 6 7 7 8 8 8 9 9 9 10 11 10 10 10 14 17 17 15 12 9 7 6 5 6 7 8 11 12 14 15 13 14 16 16 22 30 25 14 11 10 11 12 12 12 13 12 12 12 13
26 25 25 25 26 27 28 28 30 33 34 34 34 33 29 25 25 25 25 24 22 20 17 16 14 12 10 7 5 4 3 4 4 3 3 4 3 4 4 5 6 6 7 8 8 8 9 9 9 10 11 10 9 10 13 16 15 12 10 7 6 6 6 7 9 11 13 16 17 15 14 16 18 20 26 26 19 13 11 10 11 12 13 13 13 13 13 12
27 27 27 27 27 28 29 30 32 35 37 38 38 36 32 28 27 27 26 25 24 19 15 14 13 11 10 7 5 4 4 3 3 3 3 3 3 4 4 4 5 5 6 7 8 8 8 8 8 10 10 10 10 8 8 13 14 12 10 7 7 6 5 7 8 9 12 14 16 17 15 17 20 20 23 26 22 16 12 11 10 10 11 12 12 12 12 12
28 28 28 28 28 29 31 31 33 37 38 39 39 38 35 31 29 28 28 28 26 19 14 13 12 9 7 6 5 4 4 3 3 3 3 2 3 3 3 4 4 5 6 6 7 8 8 8 8 9 10 10 10 9 7 10 12 12 11 9 7 7 6 7 7 8 11 13 15 17 16 17 21 21 20 24 23 17 14 12 9 9 9 10 11 11 11 12
29 30 29 29 30 30 32 33 35 38 40 42 41 39 37 33 31 30 29 30 27 18 13 13 12 8 6 5 4 3 3 3 2 2 2 2 2 3 3 3 4 4 5 6 7 7 8 8 8 8 9 9 10 9 8 8 10 11 13 11 9 7 7 7 7 8 11 13 15 18 17 17 23 21 17 20 23 20 17 14 11 10 9 9 11 12 12 12
29 30 31 31 31 31 33 34 36 38 42 45 45 43 41 38 35 32 30 31 28 17 12 13 10 7 5 4 3 3 2 2 2 2 2 2 2 2 2 3 3 4 4 5 6 7 7 8 8 8 8 9 9 9 8 8 8 9 12 13 11 9 7 7 7 8 11 14 16 17 17 19 24 22 16 18 24 24 20 16 13 11 10 10 11 11 12 13
30 31 32 32 32 33 34 35 38 40 43 48 50 47 45 43 40 35 31 31 27 16 11 13 9 5 4 3 3 3 2 2 2 2 2 2 2 2 2 2 3 3 4 4 5 6 7 7 8 8 8 8 8 9 9 9 9 8 10 12 12 10 8 8 8 8 11 14 15 16 18 21 24 23 18 18 22 23 20 16 13 12 10 10 11 11 12 13
30 31 33 33 33 34 36 37 40 44 48 53 54 51 48 46 43 39 35 32 24 14 12 13 9 5 4 3 3 2 2 2 2 2 2 2 2 2 2 2 2 2 3 3 4 5 6 7 7 7 8 8 8 8 8 9 9 8 9 11 12 11 9 8 9 9 10 12 14 16 18 22 24 23 19 18 20 20 18 15 14 12 11 10 11 11 12 13
30 31 32 33 33 35 37 39 42 46 51 55 56 52 47 45 43 40 40 35 22 12 12 13 8 5 4 3 3 2 2 2 2 2 2 2 2 2 2 2 2 2 2 3 4 4 5 6 6 7 8 8 8 8 8 9 9 8 8 9 12 12 11 9 10 10 10 11 13 15 18 22 23 22 20 19 20 20 17 14 14 13 12 11 11 11 12 13
Wind_Speed
38 38 38 38 38 39 39 39 39 39 38 38 38 38 37 36 35 34 33 32 30 28 27 26 26 25 24 23 22 21 22 25 29 34 37 40 44 46 47 46 45 44 44 43 42 42 40 40 39 38 37 36 36 35 34 33 32 31 30 29 28 28 28 27 27 26 25 25 24 23 22 21 21 21 21 21 21 21 23 25 26 27 28 30 31 32 32 32
39 39 40 40 39 39 40 40 40 40 40 40 41 40 40 39 38 37 36 35 33 31 30 29 29 28 27 26 25 24 23 24 27 30 33 37 40 43 46 47 46 46 46 45 43 43 41 41 40 40 39 38 37 36 35 34 33 32 31 30 29 29 28 28 27 26 26 24 23 23 22 21 21 21 21 20 21 22 24 25 26 27 28 29 30 30 30 30
41 41 41 42 41 41 42 42 41 41 41 41 42 42 42 41 40 39 39 38 36 35 33 32 31 31 30 29 28 27 26 26 26 27 28 33 36 39 44 46 47 48 48 47 45 44 43 42 41 41 41 40 39 38 37 35 34 33 32 30 30 30 29 28 27 26 25 23 23 23 22 21 21 21 21 21 22 23 25 26 27 27 28 29 29 29 29 27
42 43 43 43 43 43 43 43 43 43 43 43 43 44 44 43 42 42 41 40 39 38 37 35 34 34 33 33 31 30 29 28 28 26 26 30 32 35 40 43 46 48 49 49 48 46 45 44 43 43 42 41 40 39 37 36 34 33 32 31 31 30 29 28 27 25 24 23 23 22 22 21 21 21 21 22 23 25 26 26 27 27 28 28 28 27 26 25
43 43 44 44 45 45 45 45 45 44 44 44 45 45 45 45 45 44 43 43 42 41 40 39 37 36 36 35 35 33 32 31 31 29 27 28 30 32 35 39 43 47 49 50 50 48 48 47 46 45 44 42 41 40 38 37 35 34 33 33 32 31 29 28 27 26 25 24 24 23 23 23 23 22 22 23 24 25 26 26 27 27 27 27 26 25 24 23
44 44 44 45 45 46 46 47 46 46 46 46 46 46 47 47 47 46 46 45 45 44 43 42 41 39 38 38 38 37 35 34 33 32 30 30 30 31 33 34 39 45 47 49 50 50 50 49 48 47 46 44 43 41 40 39 38 37 36 35 35 33 32 31 30 29 28 27 26 26 25 25 24 24 24 25 24 25 26 26 27 27 27 26 25 23 21 20
45 45 45 46 46 46 47 47 47 48 48 48 47 47 48 48 48 48 48 47 47 47 46 45 44 43 41 40 40 39 38 37 36 35 34 34 33 32 32 32 35 41 45 46 48 49 50 50 50 49 48 47 45 43 43 42 40 39 39 37 37 36 35 34 33 33 32 30 29 29 28 27 26 26 26 26 27 27 27 27 28 27 26 25 23 21 18 18
46 47 47 47 47 48 48 48 49 49 49 49 49 49 49 49 49 49 49 50 50 50 49 48 47 46 45 43 42 41 41 41 39 38 38 38 37 35 33 33 33 37 42 44 45 47 48 49 51 51 51 49 47 46 46 44 42 41 40 39 39 38 37 37 37 36 35 33 33 32 30 29 29 28 27 27 28 29 29 28 28 27 25 23 20 18 15 16
47 48 48 49 49 49 50 50 50 50 51 51 51 51 51 51 51 51 51 51 52 52 51 51 50 49 48 46 45 43 43 44 43 42 42 42 41 38 36 35 34 35 38 41 43 44 46 47 48 49 49 48 48 49 49 47 45 44 43 43 43 41 40 40 39 38 36 36 35 34 33 31 31 30 28 28 27 29 30 30 28 26 24 21 18 15 13 15
48 49 50 50 51 51 52 52 52 52 52 52 52 52 53 53 53 52 53 53 53 53 53 53 52 51 50 49 47 46 45 46 46 45 45 45 44 42 40 38 37 36 37 38 41 43 43 42 42 43 44 45 47 50 51 49 47 47 47 46 46 44 43 42 41 39 37 37 36 35 34 32 32 31 30 30 29 31 31 29 27 25 22 19 15 11 11 14
50 51 51 52 52 53 53 53 54 54 54 54 54 54 54 54 54 54 54 55 55 55 55 55 54 54 53 51 50 49 48 48 48 48 48 48 47 45 43 41 40 39 38 38 40 41 40 37 37 39 40 41 44 48 50 48 48 49 49 48 48 47 45 44 43 41 39 39 38 38 36 33 32 33 33 33 33 32 31 29 26 24 20 16 12 8 10 12
53 54 54 54 54 54 55 55 55 56 56 56 56 56 56 56 56 56 56 56 56 56 57 57 56 56 55 54 53 52 51 50 50 51 51 50 50 49 47 45 44 42 41 40 39 40 38 36 36 36 37 38 40 43 45 44 46 49 48 48 48 49 48 47 46 44 42 42 42 40 37 34 33 35 36 35 34 32 30 28 25 23 19 13 8 6 9 11
58 58 58 58 58 58 58 57 58 58 58 58 58 58 58 58 58 58 58 58 58 58 59 59 58 58 57 56 56 55 53 52 52 52 53 53 53 53 51 49 47 46 45 43 40 39 38 38 37 35 36 37 36 39 41 40 43 46 46 46 47 48 48 48 48 46 45 45 44 42 38 35 34 35 35 35 34 32 30 27 24 21 16 11 7 6 8 8
62 62 63 63 62 62 62 61 61 61 61 61 61 61 60 60 60 60 60 60 60 60 60 61 60 60 59 59 58 58 56 55 54 54 54 54 55 56 54 52 50 50 48 46 43 41 40 39 37 36 36 35 35 39 40 38 40 43 43 44 45 46 46 47 47 46 45 45 45 42 39 36 34 33 33 34 33 31 29 26 23 19 15 10 8 6 6 6
65 66 67 67 66 66 66 66 66 66 66 65 65 64 63 63 62 62 62 62 62 62 62 63 62 62 61 61 61 61 60 58 57 57 57 56 57 57 57 56 54 53 52 49 46 44 42 40 39 38 36 35 36 37 36 36 39 41 42 43 43 42 43 44 44 44 43 44 43 40 37 36 35 33 31 32 31 30 28 24 21 17 14 12 10 6 5 4
66 67 68 69 69 70 70 71 71 71 71 70 70 69 68 67 65 65 65 65 64 64 64 65 65 64 64 63 63 62 62 61 60 59 59 58 58 59 59 59 57 56 55 52 50 47 45 43 42 40 38 37 36 35 35 34 35 39 41 41 40 39 39 40 40 40 40 41 40 38 36 34 32 29 27 30 30 27 24 21 19 16 14 14 11 7 4 1
66 67 68 70 70 71 72 73 74 74 74 74 74 74 73 71 70 69 69 68 67 67 67 67 67 66 66 65 65 64 63 63 63 62 61 61 60 60 61 61 60 59 57 55 52 50 48 46 44 43 42 40 37 36 34 33 35 40 40 39 38 36 36 37 36 36 37 37 35 34 34 31 29 26 25 28 28 24 22 19 17 15 16 16 12 9 5 2
65 66 68 69 70 71 72 74 75 76 76 76 77 77 77 76 75 74 73 73 72 71 71 70 70 69 68 68 67 66 65 66 65 64 64 63 62 62 63 63 62 61 60 58 55 53 52 49 48 46 44 41 40 38 37 38 40 42 41 40 38 35 34 33 31 32 32 31 30 30 29 27 27 25 23 27 27 23 21 18 17 17 18 17 13 11 8 4
64 65 66 68 69 70 72 73 75 76 77 77 78 78 79 79 78 78 78 77 76 76 75 75 74 73 71 70 70 69 68 68 68 67 67 66 65 65 65 64 64 63 62 60 58 56 55 53 51 47 44 44 45 44 44 44 43 42 42 41 37 33 31 29 27 27 26 24 25 25 25 25 26 26 26 28 25 22 20 17 17 19 20 17 14 12 10 7
63 64 65 67 68 69 70 71 73 75 76 77 78 79 79 80 80 79 80 80 80 80 80 79 78 77 75 74 73 71 70 70 70 70 69 69 68 67 67 66 65 64 63 62 61 60 58 56 52 50 50 51 50 49 48 46 43 43 41 39 34 30 29 26 24 23 22 21 21 21 23 26 27 27 28 28 25 23 20 19 20 22 21 18 16 14 11 9
66 66 67 68 69 70 71 71 73 74 75 77 77 78 79 80 80 80 81 81 82 82 83 83 83 82 80 78 77 75 74 73 72 72 72 72 71 70 69 68 67 65 64 64 64 63 61 57 55 56 57 55 52 51 49 46 46 43 40 39 34 30 28 25 23 23 22 20 20 19 22 26 27 27 27 27 27 25 23 23 24 23 21 19 17 15 13 11
69 69 70 71 72 73 74 74 75 75 76 77 77 78 78 79 80 81 81 81 82 83 84 84 85 85 84 83 82 80 78 77 75 75 74 75 74 72 71 71 69 68 67 66 65 64 62 59 61 62 60 57 55 54 51 49 48 44 40 40 37 33 30 26 25 25 23 20 19 20 22 25 26 26 27 28 28 27 28 26 25 23 22 20 18 16 15 13
72 73 74 75 76 77 78 78 78 78 78 78 79 80 80 80 80 81 81 81 82 83 84 85 86 86 86 86 86 85 83 81 80 78 78 77 76 74 74 74 73 71 69 67 66 66 64 63 66 66 63 61 59 57 54 52 51 46 43 43 41 37 34 31 29 26 24 22 20 20 21 24 26 27 29 29 29 31 31 28 26 25 25 23 20 17 15 13
74 75 77 78 80 81 81 81 80 80 80 81 82 82 82 83 83 83 82 82 82 82 83 84 85 86 87 87 87 87 88 86 85 83 82 80 78 77 77 76 75 74 71 69 69 69 66 67 70 67 65 66 64 60 57 55 53 50 48 46 44 42 39 35 31 29 28 25 23 22 21 22 27 31 32 32 32 33 32 30 28 27 25 23 20 17 15 13
72 75 77 79 81 82 83 83 82 82 82 82 83 84 84 85 86 86 86 85 84 83 83 84 84 85 86 87 87 89 89 90 90 88 86 84 82 80 79 78 77 76 74 73 72 71 69 71 71 68 69 70 66 63 61 58 56 54 51 49 48 45 42 37 34 33 32 28 25 23 19 21 28 32 34 35 34 34 33 31 28 26 24 22 20 19 16 15
72 74 76 78 80 81 82 82 82 82 82 83 83 84 85 86 87 87 88 88 87 86 86 85 85 85 85 85 87 89 90 91 92 92 91 89 87 84 82 81 80 79 77 76 75 73 72 73 72 70 73 72 68 65 64 61 59 56 55 53 51 48 44 39 38 37 34 29 27 24 21 22 26 30 35 37 36 34 34 31 27 26 24 22 21 19 16 15
74 75 77 78 79 80 81 81 81 81 81 81 82 82 83 84 85 86 87 88 87 87 88 87 87 87 86 86 87 88 89 91 92 93 93 93 91 89 87 85 83 82 80 78 77 74 74 75 74 73 75 73 69 68 66 63 61 59 58 57 54 51 47 42 40 39 35 31 28 27 27 25 24 27 34 38 36 34 33 30 27 27 25 23 22 19 17 15
76 77 78 79 80 80 80 81 81 81 81 81 80 81 81 82 83 84 85 86 86 87 88 88 88 88 88 89 89 88 88 90 91 93 95 95 95 94 92 89 86 85 83 81 79 77 77 78 76 76 76 75 72 71 70 69 66 64 63 60 57 55 51 45 42 41 38 33 31 31 30 27 26 27 33 37 35 33 33 31 29 28 26 24 22 19 17 16
76 77 78 78 78 78 78 79 79 80 79 79 79 79 79 80 80 81 82 83 83 84 85 86 88 88 89 90 91 89 89 89 90 93 94 95 96 97 95 93 91 89 85 83 82 81 80 80 79 78 78 76 75 75 75 73 70 69 67 64 62 58 53 48 44 43 40 35 33 32 31 30 30 29 32 35 33 33 33 32 31 30 27 25 22 20 18 17
73 73 74 74 74 74 74 74 75 76 75 75 75 76 77 77 78 78 78 79 79 80 81 83 85 87 88 89 90 90 91 90 91 92 93 95 97 98 98 96 95 93 89 88 86 83 82 83 80 79 79 78 78 78 78 75 74 73 70 67 66 60 55 50 46 46 43 37 35 34 32 33 33 31 32 33 34 34 34 33 32 31 29 26 24 21 20 18
66 67 68 68 69 69 69 69 69 69 69 70 71 72 73 74 74 74 74 75 75 76 78 80 82 83 85 86 88 90 91 92 93 94 94 94 96 98 99 98 98 97 94 92 90 86 85 84 81 81 82 81 80 80 79 78 77 76 72 70 68 62 57 52 50 48 42 38 39 37 35 35 34 33 34 34 36 36 34 34 33 31 30 28 25 23 21 18
61 61 62 63 64 64 64 63 63 63 64 65 66 68 69 69 69 70 70 70 71 72 75 77 79 80 81 83 85 88 90 92 93 95 96 96 96 97 99 100 99 99 98 96 94 91 88 86 85 84 85 84 83 82 81 80 80 78 75 74 72 65 60 55 52 48 42 40 43 42 39 37 36 37 36 35 36 37 35 34 32 31 30 28 26 25 22 20
56 57 58 58 59 59 58 58 58 58 58 60 62 64 64 64 64 65 66 66 67 68 70 73 75 77 79 80 82 85 88 91 93 95 97 98 98 97 98 100 101 101 100 100 98 96 93 91 90 88 87 86 85 84 82 81 81 79 78 77 74 69 64 59 55 51 46 45 47 47 44 40 40 41 37 36 39 39 37 35 33 32 30 29 28 25 23 21
52 53 54 54 54 54 53 54 55 55 56 58 60 60 61 61 61 62 62 63 63 64 66 68 71 73 75 77 80 83 86 89 92 94 97 99 100 100 99 99 100 102 102 101 102 101 98 96 94 91 88 87 87 85 84 83 83 82 81 81 77 73 69 65 61 56 53 51 52 52 47 43 46 44 39 41 44 42 39 37 35 33 32 30 29 26 24 23
49 50 50 50 50 50 51 51 53 54 55 57 58 58 58 58 58 59 59 60 61 61 63 64 66 69 71 74 77 81 84 87 90 93 96 99 101 102 102 101 100 102 103 103 104 103 102 101 99 94 90 89 88 89 88 87 86 84 84 84 81 76 73 71 67 63 59 57 55 53 49 47 50 48 44 47 48 44 42 40 37 36 34 32 30 28 27 27
46 47 47 47 48 49 51 52 52 53 54 55 55 55 55 55 55 56 56 57 57 58 59 61 63 66 68 70 73 77 81 85 89 92 95 98 101 103 104 104 103 102 103 104 105 104 105 106 102 97 93 91 91 92 92 90 87 86 86 85 83 80 78 75 72 68 64 60 56 55 54 52 52 52 51 51 51 47 46 44 41 40 37 34 32 31 31 30
46 47 47 47 48 49 49 50 50 51 51 51 51 51 51 51 52 52 53 54 54 55 56 58 60 63 65 68 71 73 77 82 86 91 94 97 100 103 105 107 106 104 103 104 105 106 107 108 105 100 97 95 94 94 93 91 90 88 88 86 85 84 81 78 75 72 67 62 58 57 57 54 54 58 58 55 53 52 49 47 45 43 40 37 36 35 34 33
47 48 48 48 48 48 47 47 47 47 48 48 47 47 47 48 49 49 50 51 51 53 54 55 58 60 63 65 68 71 75 79 83 88 93 96 100 102 105 108 109 108 106 104 105 106 108 108 107 105 103 100 97 97 96 95 93 92 90 89 87 85 83 80 76 73 68 64 61 58 57 55 55 61 62 56 55 55 52 49 48 46 43 40 39 39 37 36
48 49 49 48 47 45 45 44 44 44 45 44 44 44 45 45 47 47 47 48 49 50 52 53 55 58 61 63 66 70 74 78 81 86 90 94 99 102 105 108 110 111 109 107 106 106 108 110 109 109 108 104 102 102 100 97 96 95 92 90 87 87 86 83 79 76 72 68 64 60 58 57 57 63 65 59 58 59 55 52 51 49 47 45 43 42 40 39
49 48 47 46 44 43 42 42 41 41 42 42 42 42 42 43 45 45 45 46 47 48 49 51 53 56 59 62 65 68 72 76 80 85 89 92 97 101 105 107 109 112 112 110 108 107 109 110 110 111 111 108 107 106 102 100 99 97 94 90 89 89 88 85 82 79 75 71 67 63 60 60 60 63 65 62 61 62 59 55 54 52 50 49 47 45 43 42
48 45 43 42 41 41 40 40 39 39 39 39 39 40 40 41 42 43 44 44 45 47 48 50 52 54 57 61 64 66 70 75 79 84 88 91 95 100 104 107 109 112 114 114 112 109 109 110 111 112 112 111 111 110 106 104 102 100 96 92 91 90 89 88 84 80 77 74 70 66 64 63 63 64 66 66 65 65 62 59 57 56 54 52 50 48 46 44
45 42 40 40 39 38 38 38 37 37 37 37 37 38 38 39 40 41 42 43 44 46 47 48 51 53 56 60 63 66 69 73 77 82 86 90 94 98 102 106 109 112 115 116 115 112 110 110 111 111 112 113 115 114 110 106 104 101 96 93 93 92 91 90 86 83 81 76 71 68 66 65 65 65 68 68 67 67 64 60 59 58 57 55 53 50 48 46
42 39 39 38 37 37 36 36 35 35 35 36 36 36 36 36 37 38 40 41 43 45 46 48 50 53 55 59 63 65 68 71 74 79 83 87 91 95 100 105 109 111 115 117 116 114 112 111 111 111 112 115 117 116 112 109 106 103 98 96 96 93 91 91 87 84 83 79 74 71 68 65 65 67 70 70 69 69 66 63 61 59 58 56 54 52 50 47
41 39 38 37 36 35 34 34 34 33 34 35 35 35 35 35 35 36 37 40 42 44 46 47 50 52 56 59 62 63 65 67 70 74 78 82 87 92 97 103 107 111 114 116 116 115 115 113 112 111 113 116 119 118 115 113 109 106 104 101 98 94 92 90 87 84 82 79 76 72 70 68 68 70 73 72 70 70 68 65 63 61 58 57 55 53 50 49
41 40 38 36 34 33 33 32 32 32 33 33 34 34 34 34 33 34 36 38 41 43 45 46 48 52 55 58 60 61 61 63 66 69 72 76 81 87 93 99 104 108 112 115 116 117 117 116 114 113 113 116 119 118 116 116 115 112 109 103 98 96 94 91 89 87 84 82 78 74 72 71 71 73 76 75 72 70 69 68 66 63 61 59 56 54 52 50
40 39 37 35 33 31 31 31 31 31 31 32 32 33 33 33 32 32 34 36 40 43 43 43 46 50 54 56 57 57 58 59 62 64 67 70 75 81 87 93 99 104 109 113 116 117 117 116 115 115 115 116 118 118 118 119 119 116 110 103 100 97 95 92 91 89 87 85 82 78 76 74 73 77 78 76 74 72 71 71 69 67 64 61 59 56 53 51
40 38 35 33 31 30 30 30 30 30 31 31 32 32 33 32 31 31 33 35 39 42 41 40 44 48 50 51 52 53 54 56 58 60 63 65 69 75 81 87 93 99 104 109 113 116 117 116 116 116 116 117 117 118 118 120 120 115 109 105 102 99 95 93 92 90 88 87 83 81 79 77 77 80 80 78 77 75 73 72 71 68 66 63 60 57 54 51
38 37 35 32 31 29 29 29 29 29 30 31 31 31 32 32 31 31 32 34 39 41 37 37 42 46 45 47 47 47 49 52 54 56 58 61 65 69 75 82 88 94 100 104 109 113 116 117 116 117 117 118 118 117 118 119 119 115 111 108 105 100 97 94 93 91 90 87 85 83 80 78 79 83 81 80 79 76 72 70 68 67 65 63 60 57 55 52
38 35 34 32 30 29 28 28 28 28 29 30 31 31 32 32 32 32 32 34 38 40 35 34 40 42 41 42 42 42 43 46 49 52 54 57 61 65 70 76 82 89 95 100 105 109 113 116 117 117 117 118 118 116 116 118 118 116 114 112 108 104 99 96 94 92 90 87 86 84 80 79 81 83 81 81 80 77 73 70 68 67 66 64 62 59 56 53
37 35 33 32 30 29 28 27 27 28 28 29 30 31 32 33 33 34 33 34 37 36 32 33 37 38 37 37 37 38 39 41 44 47 51 54 58 61 66 71 77 83 89 95 100 105 109 114 116 117 117 118 118 117 115 117 119 118 116 114 111 107 102 99 96 94 91 88 88 85 81 82 85 84 82 83 83 80 75 71 70 69 67 65 64 61 57 55
36 34 32 31 29 28 27 27 27 27 28 28 30 31 32 32 33 34 35 36 37 33 30 31 34 34 33 33 32 33 35 36 39 42 47 50 54 57 61 66 72 78 83 89 95 100 105 110 114 116 117 118 119 118 117 117 119 120 118 116 113 109 105 101 98 96 93 90 89 86 83 85 88 85 82 84 84 81 78 73 70 69 67 66 65 63 60 57
35 33 31 30 28 27 26 26 26 26 27 28 29 30 31 32 32 33 35 38 37 32 28 29 31 30 29 29 28 30 31 33 36 39 43 47 50 53 57 62 67 73 78 84 89 94 100 106 110 113 115 118 120 119 118 118 119 119 118 116 114 111 107 104 101 97 94 91 90 88 86 87 88 85 83 85 84 82 79 75 71 69 67 66 65 64 62 60
Wind_Direction
252 253 252 252 251 251 251 251 251 251 250 248 247 247 247 248 249 250 251 251 249 246 244 241 238 236 235 231 226 223 224 225 224 223 223 224 225 226 225 225 224 225 225 225 226 226 225 226 227 228 230 232 233 234 234 235 236 237 238 240 241 243 245 247 248 249 251 254 258 262 266 269 274 278 283 288 293 299 304 310 315 320 323 326 331 335 338 340
253 253 253 252 252 251 251 251 251 251 251 249 248 247 247 248 248 249 250 251 251 248 245 243 240 237 235 234 230 226 225 227 227 224 223 225 226 227 227 226 226 226 227 226 227 227 228 228 228 229 230 231 232 233 233 234 235 237 238 239 241 243 244 246 248 249 251 254 258 261 264 267 271 275 280 285 291 297 303 308 312 316 321 325 330 334 337 339
253 253 252 252 252 251 251 251 250 250 250 249 249 248 247 247 247 248 249 250 251 250 248 244 242 239 235 233 232 230 227 228 228 225 225 226 225 227 228 228 228 228 228 227 228 229 229 230 230 230 231 231 232 233 233 234 235 237 238 239 240 242 244 245 247 249 251 253 255 258 261 264 268 273 278 284 290 296 300 305 309 313 318 324 329 332 336 337
254 253 253 252 252 251 251 250 250 250 249 249 248 248 248 247 247 248 248 249 249 250 250 247 244 241 238 234 231 232 230 229 228 225 227 228 224 226 229 228 228 229 229 229 229 230 231 231 232 232 233 233 233 234 235 235 236 238 238 240 241 242 244 245 247 248 250 251 253 255 258 262 266 271 278 283 289 294 297 301 305 311 316 322 327 331 335 335
255 254 254 253 252 252 251 251 250 250 249 248 247 247 247 247 247 247 248 249 249 249 250 249 247 243 240 236 233 231 231 232 230 225 226 230 227 225 227 229 230 229 230 230 230 231 232 232 233 234 234 234 234 235 236 237 238 239 240 241 242 243 244 246 247 247 248 249 250 253 256 260 264 270 276 282 288 292 294 297 303 309 314 320 325 329 333 332
257 256 255 254 253 253 252 251 251 250 250 249 248 247 246 247 247 247 247 248 249 249 249 249 248 246 242 239 236 232 230 231 232 228 225 229 230 227 226 228 231 230 229 231 231 232 233 234 235 235 236 235 236 236 237 237 238 239 240 240 242 243 244 246 246 247 247 248 250 252 255 258 263 268 273 279 282 284 288 294 300 306 311 318 322 328 331 330
259 258 257 256 255 254 254 253 252 251 250 250 249 248 247 247 246 246 246 247 248 248 248 248 248 247 245 241 238 235 233 231 231 231 228 228 228 227 227 227 232 232 229 229 231 232 234 235 236 237 238 238 237 238 238 238 238 239 240 241 243 244 245 246 247 248 248 249 251 252 254 257 261 266 271 277 279 281 285 291 298 303 309 315 320 326 328 327
259 259 258 257 257 256 255 254 253 252 251 250 249 249 248 247 247 246 246 246 247 247 247 247 247 247 246 243 240 237 236 234 231 231 230 229 227 225 226 227 231 234 232 229 229 231 232 234 236 238 239 239 240 240 241 240 239 241 242 243 245 245 245 246 247 248 248 249 251 252 254 256 260 263 267 273 278 281 284 290 294 299 306 311 317 323 324 325
259 258 258 257 257 256 256 255 254 253 252 251 250 249 248 247 247 247 246 246 246 246 246 247 246 246 246 244 242 239 237 236 232 231 231 230 228 225 225 227 229 234 235 231 229 229 230 233 235 238 240 241 242 243 243 242 242 243 244 245 246 245 245 246 246 247 248 250 251 252 253 255 259 262 264 268 272 276 281 286 291 296 302 307 315 319 318 323
259 259 258 257 257 256 256 255 255 254 253 252 251 249 248 247 247 246 246 246 246 246 246 246 246 245 245 244 243 241 238 237 234 233 233 231 229 226 225 226 227 230 235 235 232 228 228 231 234 236 239 240 241 242 243 243 243 244 245 245 246 246 245 246 247 248 249 251 252 253 254 255 259 262 265 267 268 272 278 283 287 292 296 302 310 311 312 321
261 260 259 258 257 257 256 255 255 255 254 254 252 251 250 248 247 246 246 245 245 245 245 246 245 245 245 244 243 242 239 238 237 235 234 233 231 227 225 227 227 227 231 235 235 231 227 228 230 232 234 236 239 241 242 243 244 244 245 245 247 247 247 248 249 249 250 252 254 254 255 256 260 264 266 267 268 272 276 279 283 287 290 296 301 297 305 319
262 261 260 259 258 257 256 256 255 254 254 254 253 253 252 250 249 248 247 246 245 245 245 244 244 244 244 244 243 242 240 239 238 236 235 235 233 229 225 227 228 227 228 232 235 235 229 225 227 229 231 233 236 240 241 241 243 243 244 245 247 247 248 248 249 250 251 253 254 255 256 258 261 264 264 265 267 270 273 275 279 281 284 287 281 277 300 316
264 263 262 261 260 259 258 257 256 255 254 254 253 253 252 251 250 250 248 247 246 245 245 244 243 243 243 243 243 242 240 240 239 237 235 235 235 232 226 225 228 228 227 228 232 234 233 227 225 226 229 230 232 236 237 238 240 242 243 244 245 247 248 249 250 250 251 252 253 254 256 257 259 261 262 264 265 267 268 271 273 274 275 268 246 258 294 314
264 264 263 262 261 260 259 258 257 256 255 254 253 252 252 251 251 250 250 249 247 246 246 245 244 243 242 242 242 242 240 239 239 238 236 235 235 234 230 226 227 229 227 226 228 230 233 231 227 226 228 228 230 234 235 235 238 240 240 241 243 245 247 248 250 250 251 252 253 255 256 256 255 255 261 263 262 263 264 265 266 266 263 243 216 242 285 311
264 263 263 263 262 261 260 259 258 257 256 255 254 253 252 251 251 250 250 249 248 247 247 246 244 243 242 241 240 241 240 238 239 239 237 236 236 235 233 229 227 228 228 226 226 227 230 232 230 228 227 227 229 233 234 235 238 239 239 239 240 242 244 247 249 250 250 252 253 254 254 254 253 253 257 259 259 258 259 259 257 256 249 221 200 225 265 306
263 263 263 262 261 261 260 259 259 258 257 256 255 253 252 251 250 250 250 249 249 248 247 246 245 244 243 241 240 240 240 238 238 238 238 237 236 236 234 232 229 228 228 226 225 225 227 229 231 231 228 227 228 231 232 233 238 240 238 237 237 238 241 244 246 248 250 251 253 252 251 249 250 248 245 249 252 251 251 250 246 244 233 207 191 206 223 275
263 263 262 262 261 260 260 259 258 258 257 256 255 254 253 252 250 250 249 249 248 248 248 247 246 244 243 242 240 239 239 239 237 237 237 236 236 236 235 233 231 229 229 227 226 225 226 227 230 231 230 229 228 229 230 230 233 237 236 234 234 234 238 241 243 246 248 250 250 250 248 243 240 235 232 239 241 238 238 236 233 229 213 195 187 191 182 170
264 263 263 262 262 261 260 260 259 258 257 256 255 255 254 253 251 250 249 248 248 247 247 247 246 245 244 242 241 239 238 239 238 236 236 235 235 235 235 234 232 230 229 228 227 226 225 225 227 229 231 232 231 230 229 228 229 233 234 233 233 232 234 237 239 242 244 246 245 243 241 234 229 225 225 233 231 226 225 222 221 213 197 188 188 185 167 157
265 264 264 263 262 262 261 261 260 259 258 257 256 255 254 253 252 251 250 249 248 247 246 246 246 245 244 243 242 240 238 238 238 237 236 235 234 234 234 233 232 231 229 228 227 227 226 225 226 228 231 232 231 229 228 227 229 233 236 237 235 231 232 233 233 236 237 237 236 235 230 222 220 215 215 223 221 215 212 208 206 198 189 187 189 181 162 156
265 265 264 264 263 262 262 261 261 260 259 258 257 256 255 254 252 251 250 249 248 247 246 246 246 245 244 243 242 241 239 238 237 237 236 235 233 233 233 232 232 231 230 229 228 227 226 225 226 227 229 229 229 229 229 229 230 233 236 238 236 230 229 227 225 227 227 226 227 227 221 214 214 210 209 212 207 200 195 192 191 189 188 188 187 179 161 156
267 266 265 264 263 262 261 261 260 260 260 259 258 257 256 255 253 252 251 250 249 247 246 246 245 245 244 244 243 242 240 238 237 237 236 236 234 232 232 232 231 230 230 229 227 227 226 226 228 229 228 227 228 229 230 231 231 231 234 237 234 229 227 222 221 223 221 220 219 216 213 209 206 203 201 201 197 187 180 181 185 188 191 189 186 179 163 157
269 268 266 265 264 263 261 260 260 259 259 259 259 258 257 256 255 253 251 250 250 248 247 246 245 244 244 243 243 242 241 239 238 237 236 236 235 233 232 232 231 229 229 229 228 227 226 227 229 228 226 226 227 228 229 231 231 229 230 235 234 228 224 220 220 220 218 216 215 211 209 204 198 194 194 194 189 178 173 180 186 190 193 188 185 180 166 159
270 269 268 267 265 264 263 262 261 260 259 259 259 258 258 257 256 255 253 251 250 249 248 247 245 244 243 242 242 242 241 240 239 238 236 236 235 233 232 232 231 229 228 228 228 228 226 228 229 226 225 226 226 226 227 229 230 227 227 232 233 228 222 219 217 218 218 215 213 211 206 199 191 186 188 187 180 174 174 181 187 191 192 187 182 179 169 161
271 270 269 268 267 266 265 264 263 262 261 260 260 259 258 257 257 256 254 253 251 249 249 248 246 245 244 242 241 241 241 240 240 238 237 236 235 234 233 232 230 229 227 226 227 228 226 228 228 224 224 226 224 225 225 227 229 228 226 228 229 227 222 217 215 219 219 212 209 210 204 195 187 183 183 180 175 176 179 182 186 190 190 183 178 177 171 165
270 270 269 269 268 268 267 266 265 264 263 263 261 260 259 258 257 256 255 254 252 251 249 248 247 246 244 243 242 240 240 240 239 239 238 236 235 234 233 233 231 229 228 226 226 227 227 228 228 224 225 225 224 224 224 225 227 227 227 227 227 227 222 214 213 219 218 208 205 207 202 194 188 185 181 175 176 182 183 182 184 188 189 183 180 178 173 168
271 271 271 270 270 270 269 269 268 267 266 265 263 262 261 259 258 257 256 254 253 252 250 249 247 246 245 243 242 240 239 239 238 238 238 237 235 234 233 233 232 229 228 226 225 225 227 229 227 225 225 225 223 224 224 225 226 226 228 227 225 225 222 213 211 217 216 206 200 202 203 199 193 187 179 174 179 186 184 180 184 188 189 186 184 181 175 172
273 273 273 273 273 272 272 271 271 269 268 267 265 264 262 261 259 258 257 255 254 252 251 249 248 246 244 243 242 240 239 238 238 237 237 237 236 234 233 232 232 230 228 227 225 224 226 228 227 226 226 225 223 224 224 224 225 225 227 228 226 224 222 214 211 215 214 204 197 199 203 201 195 187 178 177 182 186 184 182 185 189 189 189 187 182 179 176
276 276 275 275 274 274 273 272 271 270 269 268 267 266 264 263 261 259 258 256 254 252 251 249 248 246 244 243 242 240 239 238 238 237 236 236 236 235 233 232 232 231 229 227 225 224 225 226 226 226 226 225 223 223 223 222 222 223 225 226 226 224 221 214 210 214 214 206 198 200 201 200 198 189 180 181 185 188 187 184 187 189 189 191 188 184 183 179
279 278 277 276 275 274 273 273 272 271 270 270 269 267 265 264 262 260 258 257 255 253 251 250 248 246 244 243 242 240 239 238 237 237 235 235 235 235 233 232 231 231 229 228 226 224 224 225 224 225 226 224 223 222 222 221 221 222 222 224 226 224 220 214 208 211 214 209 203 201 199 201 202 194 185 185 189 193 192 187 189 188 189 193 191 188 189 185
279 279 278 277 276 275 274 273 273 273 272 271 270 268 266 264 262 261 259 258 256 254 252 250 248 246 243 242 241 240 238 237 236 236 236 234 234 234 233 232 231 230 229 229 227 225 225 225 224 225 226 225 224 223 222 221 221 222 221 222 225 223 219 213 208 209 212 212 210 204 202 205 205 200 194 192 195 199 196 190 191 189 189 194 193 192 193 191
280 279 279 278 277 276 275 275 275 274 274 272 271 269 267 266 264 262 261 259 257 255 253 251 249 246 243 241 240 239 238 236 235 235 235 234 233 233 233 232 230 230 228 228 228 226 225 225 224 224 225 225 224 223 222 221 221 222 221 222 224 223 219 213 208 208 207 211 215 211 206 208 209 207 203 201 201 203 199 194 194 191 190 194 194 195 195 194
281 280 280 279 279 278 278 277 276 275 274 273 272 270 268 267 266 265 263 260 258 256 254 251 249 247 244 241 239 238 236 235 234 233 233 234 233 232 231 231 230 229 228 227 227 226 225 225 223 222 223 224 224 223 222 221 221 221 221 222 224 223 221 216 210 206 203 210 217 216 211 209 213 213 208 207 208 209 206 201 199 197 195 196 197 198 197 197
283 282 281 281 281 281 281 280 278 276 275 273 272 271 270 269 268 266 264 262 259 256 254 252 250 247 245 242 239 237 235 234 233 232 231 232 232 232 230 230 229 229 227 226 226 226 225 225 223 222 222 223 224 223 222 222 222 221 221 222 223 223 222 219 215 207 204 210 215 216 213 210 215 214 209 212 215 214 212 207 204 202 199 199 201 200 200 201
285 284 284 284 284 284 283 282 281 279 277 275 274 273 272 271 269 267 265 263 260 258 255 252 250 247 245 242 240 237 235 233 232 231 230 230 230 231 230 229 228 228 227 226 225 225 225 225 224 222 221 222 223 223 222 222 221 220 220 221 222 222 221 221 218 210 207 210 212 215 213 211 217 215 208 216 219 216 216 213 209 208 203 202 204 203 203 205
289 288 288 288 288 287 286 284 282 281 279 277 276 275 274 272 270 268 266 263 261 258 256 253 250 248 245 242 240 237 235 233 232 230 229 228 228 229 230 229 228 227 226 225 224 224 224 225 224 222 221 221 222 222 222 221 220 219 219 220 221 221 220 220 219 213 210 210 209 212 212 211 218 217 210 217 220 217 218 217 214 213 209 205 205 205 205 208
293 292 292 291 290 289 287 285 283 281 279 278 277 276 275 273 271 269 267 264 262 259 256 254 251 248 245 242 239 237 235 233 231 230 228 227 227 227 228 228 228 226 225 225 224 223 223 224 224 222 221 221 221 222 222 221 220 219 219 219 220 220 219 219 219 216 213 211 207 209 212 211 216 220 214 216 220 218 217 218 217 216 213 207 205 206 207 209
297 296 295 293 292 290 288 286 284 282 280 279 278 277 275 273 271 270 268 265 262 260 257 254 251 248 245 242 239 237 235 233 231 230 228 227 226 225 225 227 227 226 225 224 223 223 223 223 223 222 221 220 221 222 222 221 220 219 219 218 218 219 219 219 219 217 214 212 208 208 213 212 214 221 219 215 219 219 217 218 219 217 215 211 208 208 208 210
300 299 298 296 294 292 289 287 285 283 282 281 279 277 276 274 271 269 268 266 263 260 257 254 251 249 246 242 239 236 234 232 231 230 228 227 226 225 224 225 226 226 225 223 222 222 222 222 221 221 221 220 220 221 221 221 220 219 218 217 217 218 219 218 219 219 215 213 209 207 214 216 215 223 224 218 220 222 218 218 220 220 217 214 212 211 210 212
303 302 301 299 297 294 291 289 286 285 283 282 281 279 277 275 273 270 268 266 263 261 258 255 252 249 247 243 240 237 234 231 230 229 228 226 226 225 224 224 224 225 225 223 222 221 221 221 220 220 221 219 219 220 220 220 220 219 218 217 216 217 218 218 217 218 215 213 209 205 210 216 216 222 225 220 221 224 221 219 220 221 219 217 216 215 213 215
305 304 303 300 298 295 293 290 288 286 284 282 281 279 277 275 273 271 269 266 263 261 258 255 252 249 247 245 241 238 235 232 229 228 227 225 225 224 223 223 223 223 224 223 222 220 220 220 219 219 220 219 219 220 220 220 220 219 217 216 216 216 217 217 216 217 215 213 210 204 206 213 216 221 223 220 220 224 223 221 221 222 222 220 220 219 217 217
307 306 303 301 299 296 294 291 289 286 284 282 280 279 277 276 274 272 270 267 264 261 258 255 253 250 247 246 243 239 236 233 230 228 226 224 223 223 223 222 222 222 223 223 222 220 219 219 219 219 219 219 220 220 220 219 219 219 217 215 215 215 216 217 216 215 216 214 211 206 205 211 215 220 223 219 219 223 223 221 222 223 223 223 223 222 221 221
309 307 305 303 300 297 294 292 289 287 285 283 282 280 278 276 275 274 273 271 268 264 261 257 254 251 248 246 244 241 238 235 232 229 227 224 223 222 221 221 221 220 221 222 221 220 219 218 219 218 218 218 220 220 219 220 220 220 217 215 215 215 214 215 214 213 214 213 211 207 206 210 214 220 224 220 218 222 223 222 222 224 225 225 225 224 224 224
311 310 308 305 303 299 296 293 291 289 287 285 284 282 279 277 276 275 274 272 270 267 264 261 257 253 250 247 246 243 241 238 234 232 229 226 223 222 221 221 220 219 220 221 221 220 219 218 218 218 217 218 219 219 219 219 220 219 218 215 215 214 214 215 214 213 214 213 210 206 205 210 213 218 225 222 217 220 222 222 222 223 225 226 226 226 226 225
314 313 310 308 305 301 297 294 292 290 289 287 286 284 282 280 278 276 275 272 270 268 266 263 260 257 254 250 248 245 243 241 238 235 232 229 226 223 221 221 220 219 219 219 220 219 219 218 217 217 217 217 218 218 218 219 219 219 218 215 214 213 213 214 213 213 213 213 211 206 203 208 213 217 224 224 219 217 220 222 223 222 223 225 226 227 226 226
316 315 313 310 307 303 299 296 293 291 289 289 288 287 287 285 283 282 279 276 273 270 267 264 262 260 257 254 251 249 246 243 241 238 235 231 229 226 224 222 221 219 218 218 219 219 219 218 217 216 216 217 218 218 217 218 218 218 218 216 213 212 212 212 212 211 211 211 211 207 203 207 212 217 222 224 222 218 217 219 222 223 222 222 223 224 225 226
318 317 315 312 309 304 300 297 294 292 290 290 290 290 291 291 290 289 286 284 281 276 271 269 266 263 260 257 255 252 249 246 243 240 237 233 230 227 226 224 223 221 219 218 218 218 218 218 217 216 216 217 218 217 217 218 218 218 217 216 214 212 211 211 211 211 211 211 209 206 203 205 212 217 221 224 223 220 217 216 219 221 222 222 222 222 223 225
320 318 316 314 311 306 302 298 295 293 291 291 291 293 295 295 295 295 294 292 288 282 278 277 273 267 263 260 257 255 252 249 245 242 238 234 230 227 226 225 223 222 221 219 218 218 218 218 217 216 216 216 217 217 217 218 219 218 217 217 215 213 211 210 211 210 210 211 209 207 204 204 211 216 219 223 224 222 219 216 217 219 221 223 224 223 224 224
322 320 318 316 312 308 304 300 296 294 293 293 294 296 299 300 301 301 301 300 295 288 285 283 277 272 268 265 261 256 252 248 246 242 238 234 231 227 225 224 223 222 221 220 219 218 217 218 218 217 216 216 217 217 216 217 218 217 216 216 216 214 211 210 210 210 210 210 209 208 204 204 211 216 217 222 225 224 221 218 218 219 220 223 224 224 224 224
323 322 319 317 314 310 306 302 299 296 295 296 298 300 303 305 307 307 306 306 300 294 293 290 282 275 272 268 264 259 252 247 244 241 238 234 231 227 224 223 222 221 220 220 219 218 217 217 217 217 217 217 217 217 216 216 217 217 216 215 215 214 212 210 210 210 210 209 209 208 203 204 213 216 215 220 224 224 221 218 217 218 219 221 223 223 223 223
324 323 321 318 315 313 309 306 302 299 298 299 300 303 306 309 311 312 312 310 305 301 301 297 287 280 276 271 266 260 253 247 242 239 236 233 230 227 224 222 221 220 220 219 218 217 217 217 217 217 217 218 217 217 216 216 216 216 216 215 214 214 212 210 209 209 209 208 209 208 203 204 213 215 213 218 223 223 221 218 216 217 217 219 221 222 222 222
325 324 322 319 317 314 312 309 305 302 300 300 301 304 307 311 314 316 318 315 309 308 311 305 293 285 280 274 267 260 252 246 240 236 234 232 229 226 224 221 220 219 219 218 217 216 216 216 217 216 217 218 218 216 216 216 216 216 215 215 214 213 212 210 209 208 208 208 209 208 204 205 213 215 213 217 221 223 223 221 218 218 217 218 219 220 220 220
327 325 323 320 318 316 313 310 306 303 300 299 300 304 308 313 318 322 323 320 314 315 321 312 299 291 284 276 267 259 251 245 240 235 232 230 228 226 224 220 218 218 218 217 216 215 215 215 216 215 215 217 218 217 215 215 215 215 215 214 214 213 212 211 209 208 207 207 208 207 205 206 212 215 214 216 220 222 223 222 220 219 218 218 218 219 220 219